SCP
1 1 1 1 1 0 0 0 1 1 1 1 1 1 1 1 1 1 1 1 0 0 0 0 0 0 0 0 0 -0 -0 0
1 1 1 1 1 1 0 0 1 1 1 1 1 1 1 1 1 1 1 1 1 1 1 1 0 0 0 0 0 0 -0 -0
1 2 3 1 2 1 1 1 1 1 1 0 1 1 1 1 1 1 1 1 1 1 1 1 1 0 0 0 0 0 0 0
0 0 1 1 1 2 1 1 1 1 1 1 1 1 1 1 1 1 1 1 1 1 1 1 1 1 1 0 0 0 -0 0
0 0 0 2 2 3 3 2 2 3 2 2 2 1 1 1 1 1 1 1 2 1 2 2 1 1 1 1 1 0 0 -0
0 0 0 0 1 1 1 4 5 4 2 0 2 2 2 1 1 1 1 1 1 1 2 2 1 1 1 1 1 0 0 -0
0 0 0 0 0 0 1 0 0 0 0 0 0 0 0 0 1 1 1 1 1 1 1 1 2 2 2 1 1 1 0 0
0 0 0 0 0 0 0 0 0 0 0 0 0 0 0 0 0 1 1 1 1 1 1 1 1 0 1 1 2 2 2 1
0 0 0 0 0 0 0 0 0 0 0 0 0 0 0 0 0 0 0 0 0 0 0 0 0 0 -0 0 0 0 1 1
0 0 0 0 0 0 0 0 0 0 0 0 0 0 0 0 0 0 0 0 0 0 1 0 0 0 0 0 0 0 1 -0
0 0 0 0 0 0 0 0 0 0 0 0 0 0 0 0 0 0 0 0 0 0 0 0 1 0 0 0 0 1 1 0
0 0 0 0 0 0 0 0 0 0 0 0 0 0 0 0 0 0 0 0 0 0 0 0 0 0 1 1 1 1 1 1
0 0 0 0 0 0 0 0 0 0 0 0 0 0 0 0 0 0 0 0 0 0 0 0 0 0 0 0 0 0 1 1
0 0 0 0 0 0 0 0 0 0 0 0 0 0 0 0 0 0 0 0 0 0 0 0 0 0 0 0 0 0 1 1
0 0 0 0 0 0 0 0 0 0 0 0 0 0 0 0 0 0 0 0 0 0 0 0 0 0 0 0 0 0 0 0
0 0 0 0 0 0 0 0 0 0 0 0 0 0 0 0 0 0 0 0 0 0 0 0 0 0 0 0 0 0 0 0
0 0 0 0 0 0 0 0 0 0 0 0 0 0 0 0 0 0 0 0 0 0 0 0 0 0 0 0 0 0 0 0
0 0 0 0 0 0 0 0 0 0 0 0 0 0 0 0 0 0 0 0 0 0 0 0 0 0 0 0 0 0 0 0
0 0 0 0 0 0 0 0 0 0 0 0 0 0 0 0 0 0 0 0 0 0 0 0 0 0 0 0 0 0 0 0
0 0 0 0 0 0 0 0 -0 0 0 0 0 0 0 0 0 0 0 0 0 0 0 0 0 0 0 0 0 0 0 0
Wind_Speed_500mb
16 13 9 9 12 16 19 22 24 27 29 30 31 33 35 38 40 42 40 37 33 32 32 32 31 31 29 29 26 23 19 18
11 11 22 17 12 14 18 21 25 28 31 32 34 36 38 41 45 47 47 45 42 40 37 37 37 36 35 34 32 29 24 21
15 9 1 15 21 23 21 23 25 27 30 32 34 38 40 43 48 51 51 51 51 48 45 44 44 44 42 39 36 33 29 23
12 17 16 13 7 28 31 34 25 25 21 22 26 31 39 40 40 43 54 56 56 56 53 52 51 52 48 43 42 35 34 24
21 25 24 26 22 15 17 8 12 15 15 20 28 31 33 35 41 49 48 50 54 64 65 63 66 62 56 51 37 28 40 30
15 24 32 29 30 31 28 25 19 23 26 25 30 33 35 38 39 44 44 50 55 65 71 75 75 72 66 54 40 36 21 28
19 19 16 19 30 37 32 26 27 28 30 28 31 32 38 41 41 41 44 51 54 61 62 74 76 79 74 63 49 44 37 40
17 18 16 10 13 17 22 27 29 24 22 26 28 33 38 42 46 47 47 47 53 58 63 66 79 57 48 66 61 51 51 51
19 19 19 15 9 9 13 14 14 16 22 23 30 36 36 38 37 44 50 54 54 57 59 60 68 62 83 36 54 57 55 54
20 20 18 17 15 23 21 19 20 19 20 20 27 28 32 34 34 30 37 46 43 43 40 47 43 33 16 45 61 49 59 64
20 20 17 17 15 15 6 9 12 19 26 25 24 23 23 23 19 27 33 30 18 35 39 37 29 27 20 24 41 64 61 63
20 23 21 18 15 10 8 14 18 19 31 32 33 30 29 28 25 28 31 28 25 29 28 25 27 31 26 31 43 55 61 62
22 24 25 25 25 23 20 21 15 19 23 31 35 36 34 32 32 31 33 34 33 26 27 26 25 28 38 44 46 53 59 64
18 20 24 26 23 25 24 20 17 16 25 23 35 38 39 39 39 38 38 36 33 32 25 28 30 14 27 29 33 49 53 59
13 15 19 24 21 21 19 12 12 22 27 29 37 36 38 37 41 43 41 38 38 38 30 25 33 30 14 23 15 15 32 34
16 16 20 25 27 27 28 27 27 27 29 34 32 31 34 31 41 45 45 45 41 39 38 36 31 39 35 24 28 44 37 45
14 13 18 24 27 30 32 32 28 28 32 34 31 29 26 33 43 48 50 48 47 47 47 45 38 39 37 41 48 44 36 47
12 8 16 22 26 29 32 33 34 33 38 38 38 34 34 39 44 44 43 44 46 47 48 49 47 43 44 42 37 39 36 35
7 7 13 18 21 25 29 32 32 33 37 37 38 40 41 44 45 44 43 42 42 44 45 47 46 47 43 45 48 50 55 58
8 6 9 14 18 21 24 26 27 28 30 32 35 36 37 41 43 40 42 41 40 42 44 44 42 43 45 46 52 53 54 54
Wind_Direction_500mb
4 346 345 289 261 256 256 258 256 254 253 252 253 251 248 246 242 244 243 241 239 244 245 244 241 245 246 250 252 250 237 206
18 346 337 327 315 276 266 260 258 256 255 255 255 254 252 249 246 242 242 244 240 240 241 243 244 244 244 246 248 247 244 225
167 148 191 308 310 303 297 287 273 270 266 264 261 258 256 253 251 248 244 243 242 241 240 241 241 243 243 243 245 246 245 227
188 189 189 188 267 281 291 300 298 291 288 283 276 274 265 260 266 264 255 248 245 243 242 241 242 241 239 241 243 249 251 218
239 228 211 200 203 236 256 264 260 246 245 249 256 263 264 255 246 258 260 258 253 249 243 239 239 238 236 233 229 249 252 203
282 264 247 237 230 224 239 241 234 245 253 265 266 262 268 270 268 261 262 257 252 253 250 246 243 239 235 233 226 229 225 206
328 310 290 261 245 245 249 248 254 259 256 268 268 273 266 267 270 271 269 267 262 263 255 251 251 246 238 220 224 229 216 213
353 340 334 314 301 272 263 262 261 273 273 270 274 279 276 275 274 272 272 270 268 264 264 263 257 254 238 228 220 224 227 233
22 16 12 3 342 344 319 292 297 294 282 290 286 275 278 279 281 278 277 273 274 278 275 278 287 312 285 310 235 232 231 239
21 32 32 27 39 25 11 6 352 340 308 295 288 287 282 285 284 289 280 286 295 289 289 290 309 319 303 238 267 246 233 249
18 29 36 39 51 85 5 34 16 348 318 311 314 310 309 309 302 281 287 295 307 311 283 283 297 318 289 264 260 253 253 255
22 28 37 44 43 49 18 17 352 358 333 330 325 326 319 316 308 304 304 299 289 288 307 317 284 276 275 265 258 258 259 259
21 13 20 22 20 19 23 23 359 8 332 348 327 328 325 322 315 310 301 301 306 321 306 298 297 298 277 268 269 268 269 270
12 8 2 4 12 3 14 17 19 318 329 338 329 333 332 328 322 313 306 306 300 300 307 303 292 313 316 288 290 283 275 275
17 15 21 29 30 9 8 4 353 318 339 327 325 332 327 331 325 313 313 308 303 299 299 289 286 280 253 282 295 265 286 266
51 39 35 30 27 23 15 8 358 346 336 318 334 315 327 322 300 301 304 306 305 300 294 289 276 274 269 240 260 275 288 293
73 31 29 26 22 20 14 7 359 348 327 331 316 325 315 303 296 302 302 305 301 299 298 300 294 282 271 266 248 242 244 268
91 42 29 25 23 19 16 9 1 351 340 338 339 328 321 311 319 324 323 316 314 310 304 299 295 290 283 279 276 264 259 274
70 65 37 28 25 19 15 10 1 351 345 344 339 340 339 339 334 339 339 334 327 321 314 309 304 295 291 286 281 276 264 254
125 80 46 36 27 19 14 11 6 358 353 353 351 349 349 343 348 349 347 343 336 324 318 315 310 304 301 293 284 280 276 272
Wind_Speed_850mb
16 13 9 9 12 16 19 22 24 27 29 30 31 33 35 38 40 42 40 37 33 32 32 32 31 31 29 29 26 23 19 18
11 11 22 17 12 14 18 21 25 28 31 32 34 36 38 41 45 47 47 45 42 40 37 37 37 36 35 34 32 29 24 21
15 9 1 15 21 23 21 23 25 27 30 32 34 38 40 43 48 51 51 51 51 48 45 44 44 44 42 39 36 33 29 23
12 17 16 13 7 28 31 34 25 25 21 22 26 31 39 40 40 43 54 56 56 56 53 52 51 52 48 43 42 35 34 24
21 25 24 26 22 15 17 8 12 15 15 20 28 31 33 35 41 49 48 50 54 64 65 63 66 62 56 51 37 28 40 30
15 24 32 29 30 31 28 25 19 23 26 25 30 33 35 38 39 44 44 50 55 65 71 75 75 72 66 54 40 36 21 28
19 19 16 19 30 37 32 26 27 28 30 28 31 32 38 41 41 41 44 51 54 61 62 74 76 79 74 63 49 44 37 40
17 18 16 10 13 17 22 27 29 24 22 26 28 33 38 42 46 47 47 47 53 58 63 66 79 57 48 66 61 51 51 51
19 19 19 15 9 9 13 14 14 16 22 23 30 36 36 38 37 44 50 54 54 57 59 60 68 62 83 36 54 57 55 54
20 20 18 17 15 23 21 19 20 19 20 20 27 28 32 34 34 30 37 46 43 43 40 47 43 33 16 45 61 49 59 64
20 20 17 17 15 15 6 9 12 19 26 25 24 23 23 23 19 27 33 30 18 35 39 37 29 27 20 24 41 64 61 63
20 23 21 18 15 10 8 14 18 19 31 32 33 30 29 28 25 28 31 28 25 29 28 25 27 31 26 31 43 55 61 62
22 24 25 25 25 23 20 21 15 19 23 31 35 36 34 32 32 31 33 34 33 26 27 26 25 28 38 44 46 53 59 64
18 20 24 26 23 25 24 20 17 16 25 23 35 38 39 39 39 38 38 36 33 32 25 28 30 14 27 29 33 49 53 59
13 15 19 24 21 21 19 12 12 22 27 29 37 36 38 37 41 43 41 38 38 38 30 25 33 30 14 23 15 15 32 34
16 16 20 25 27 27 28 27 27 27 29 34 32 31 34 31 41 45 45 45 41 39 38 36 31 39 35 24 28 44 37 45
14 13 18 24 27 30 32 32 28 28 32 34 31 29 26 33 43 48 50 48 47 47 47 45 38 39 37 41 48 44 36 47
12 8 16 22 26 29 32 33 34 33 38 38 38 34 34 39 44 44 43 44 46 47 48 49 47 43 44 42 37 39 36 35
7 7 13 18 21 25 29 32 32 33 37 37 38 40 41 44 45 44 43 42 42 44 45 47 46 47 43 45 48 50 55 58
8 6 9 14 18 21 24 26 27 28 30 32 35 36 37 41 43 40 42 41 40 42 44 44 42 43 45 46 52 53 54 54
Wind_Direction_850mb
4 346 345 289 261 256 256 258 256 254 253 252 253 251 248 246 242 244 243 241 239 244 245 244 241 245 246 250 252 250 237 206
18 346 337 327 315 276 266 260 258 256 255 255 255 254 252 249 246 242 242 244 240 240 241 243 244 244 244 246 248 247 244 225
167 148 191 308 310 303 297 287 273 270 266 264 261 258 256 253 251 248 244 243 242 241 240 241 241 243 243 243 245 246 245 227
188 189 189 188 267 281 291 300 298 291 288 283 276 274 265 260 266 264 255 248 245 243 242 241 242 241 239 241 243 249 251 218
239 228 211 200 203 236 256 264 260 246 245 249 256 263 264 255 246 258 260 258 253 249 243 239 239 238 236 233 229 249 252 203
282 264 247 237 230 224 239 241 234 245 253 265 266 262 268 270 268 261 262 257 252 253 250 246 243 239 235 233 226 229 225 206
328 310 290 261 245 245 249 248 254 259 256 268 268 273 266 267 270 271 269 267 262 263 255 251 251 246 238 220 224 229 216 213
353 340 334 314 301 272 263 262 261 273 273 270 274 279 276 275 274 272 272 270 268 264 264 263 257 254 238 228 220 224 227 233
22 16 12 3 342 344 319 292 297 294 282 290 286 275 278 279 281 278 277 273 274 278 275 278 287 312 285 310 235 232 231 239
21 32 32 27 39 25 11 6 352 340 308 295 288 287 282 285 284 289 280 286 295 289 289 290 309 319 303 238 267 246 233 249
18 29 36 39 51 85 5 34 16 348 318 311 314 310 309 309 302 281 287 295 307 311 283 283 297 318 289 264 260 253 253 255
22 28 37 44 43 49 18 17 352 358 333 330 325 326 319 316 308 304 304 299 289 288 307 317 284 276 275 265 258 258 259 259
21 13 20 22 20 19 23 23 359 8 332 348 327 328 325 322 315 310 301 301 306 321 306 298 297 298 277 268 269 268 269 270
12 8 2 4 12 3 14 17 19 318 329 338 329 333 332 328 322 313 306 306 300 300 307 303 292 313 316 288 290 283 275 275
17 15 21 29 30 9 8 4 353 318 339 327 325 332 327 331 325 313 313 308 303 299 299 289 286 280 253 282 295 265 286 266
51 39 35 30 27 23 15 8 358 346 336 318 334 315 327 322 300 301 304 306 305 300 294 289 276 274 269 240 260 275 288 293
73 31 29 26 22 20 14 7 359 348 327 331 316 325 315 303 296 302 302 305 301 299 298 300 294 282 271 266 248 242 244 268
91 42 29 25 23 19 16 9 1 351 340 338 339 328 321 311 319 324 323 316 314 310 304 299 295 290 283 279 276 264 259 274
70 65 37 28 25 19 15 10 1 351 345 344 339 340 339 339 334 339 339 334 327 321 314 309 304 295 291 286 281 276 264 254
125 80 46 36 27 19 14 11 6 358 353 353 351 349 349 343 348 349 347 343 336 324 318 315 310 304 301 293 284 280 276 272